Current Version              Previous Version:    01  02  03  04  05  06  07  08  09  10  11  12  13  14  15  16  17  18  19  20  21  22  23  24  25  26  27  28  29  30  
   31  32  33  34  35  36  37  38  39  40  41  42  43  44  45  46  47  48  49  50  51  52  53  54  55  56  57  58  59  60  

[Printable]
776
ASUS44 KFWD 161803
RWRTX
NORTH TEXAS HOURLY WEATHER ROUNDUP
NATIONAL WEATHER SERVICE FORT WORTH TX
100 PM CDT WED APR 16 2014

NOTE: "FAIR" INDICATES FEW OR NO CLOUDS BELOW 12,000 FEET WITH NO
SIGNIFICANT WEATHER AND/OR OBSTRUCTIONS TO VISIBILITY.

TXZ118-119-161900-
DALLAS/FORT WORTH METROPLEX

CITY           SKY/WX    TMP DP  RH WIND       PRES   REMARKS
DFW AIRPORT    PTSUNNY   64  33  31 S25G35    30.04F
6HR MIN TEMP:  44; 6HR MAX TEMP:  64;

DALLAS LOVE    PTSUNNY   63  31  30 S21G36    30.07F
6HR MIN TEMP:  46; 6HR MAX TEMP:  64;

FTW MEACHAM    FAIR      64  33  31 S25G33    30.02F
6HR MIN TEMP:  43; 6HR MAX TEMP:  64;

DAL-EXECUTIVE  FAIR      63  34  33 S17G32    30.06F
6HR MIN TEMP:  43; 6HR MAX TEMP:  64;

FTW-ALLIANCE   PTSUNNY   62  33  33 S24G33    30.02F
6HR MIN TEMP:  42; 6HR MAX TEMP:  62;

FTW-NAS-JRB    PTSUNNY   63  28  26 S21G31    30.07F
6HR MIN TEMP:  48; 6HR MAX TEMP:  66;

FTW-SPINKS     SUNNY     64  34  32 SE24G31   30.06F
ARLINGTON      FAIR      63  33  32 SE20G31   30.05F
6HR MIN TEMP:  41; 6HR MAX TEMP:  63;

GRAND PRAIRIE  SUNNY     63  32  31 S16G30    30.09F
ADDISON        PTSUNNY   63  30  29 S18G29    30.07F
MESQUITE       SUNNY     61  34  36 SE16G28   30.09F
LANCASTER      FAIR      61  33  35 SE17G26   30.10F
6HR MIN TEMP:  38; 6HR MAX TEMP:  61;

$$

TXZ091>094-102>105-117-120-121-131>134-161900-
NORTH CENTRAL TEXAS

CITY           SKY/WX    TMP DP  RH WIND       PRES   REMARKS
BRIDGEPORT     FAIR      63  28  26 S17       30.03F
6HR MIN TEMP:  46; 6HR MAX TEMP:  63;

DENTON         FAIR      62  33  33 S20G32    30.05F
6HR MIN TEMP:  40; 6HR MAX TEMP:  62;

MCKINNEY       FAIR      61  33  35 S24G33    30.07F
6HR MIN TEMP:  38; 6HR MAX TEMP:  62;

GREENVILLE     FAIR      61  32  33 SE18G25   30.10F
ROCKWALL       FAIR      64  35  34 SE12G24   30.08F
6HR MIN TEMP:  41; 6HR MAX TEMP:  64;

TERRELL        FAIR      62  34  35 S18G28    30.11F
6HR MIN TEMP:  44; 6HR MAX TEMP:  62;

WAXAHACHIE     FAIR      62  32  32 S16G24    30.09F
6HR MIN TEMP:  37; 6HR MAX TEMP:  62;

CLEBURNE       FAIR      63  36  36 S18G26    30.07F
GRANBURY       FAIR      65  31  27 SE22G30   30.04F
6HR MIN TEMP:  43; 6HR MAX TEMP:  65;

$$

TXZ083>090-098>101-113>116-127>130-139>142-154-155-161900-
WESTERN NORTH TEXAS

CITY           SKY/WX    TMP DP  RH WIND       PRES   REMARKS
WICHITA FALLS  FAIR      67  26  21 S25G36    29.93F
6HR MIN TEMP:  45; 6HR MAX TEMP:  67;

VERNON         FAIR      69  21  16 S18G30    29.90F
6HR MIN TEMP:  46; 6HR MAX TEMP:  69;

ABILENE        FAIR      66  27  23 S24G37    29.95F
6HR MIN TEMP:  47; 6HR MAX TEMP:  66;

ABILENE-DYESS  FAIR      66  26  22 S22G31    29.93F
6HR MIN TEMP:  47; 6HR MAX TEMP:  67; 6HR PCP:  0.02;

BRECKENRIDGE   FAIR      69  25  19 S21G28    29.96F
6HR MIN TEMP:  46; 6HR MAX TEMP:  69;

GRAHAM         FAIR      66  28  23 S13G24    29.96F
6HR MIN TEMP:  43; 6HR MAX TEMP:  66;

MINERAL WELLS  FAIR      65  29  25 SE22G28   29.99F
6HR MIN TEMP:  41; 6HR MAX TEMP:  65;

STEPHENVILLE   FAIR      62  30  30 S17G26    30.03F
6HR MIN TEMP:  41; 6HR MAX TEMP:  62;

COMANCHE       FAIR      64  28  25 S23G31    29.99F
6HR MIN TEMP:  41; 6HR MAX TEMP:  65;

BROWNWOOD      FAIR      64  28  25 S20G29    29.99F
$$

TXZ143>147-156>162-174-175-161900-
CENTRAL TEXAS

CITY           SKY/WX    TMP DP  RH WIND       PRES   REMARKS
WACO           FAIR      64  40  41 S20G31    30.08F
6HR MIN TEMP:  44; 6HR MAX TEMP:  64;

WACO-TSTC      SUNNY     63  41  45 SE17G26   30.09F
WACO-MCGREGOR  FAIR      64  39  39 S21G28    30.09F
6HR MIN TEMP:  37; 6HR MAX TEMP:  64;

HILLSBORO      FAIR      63  36  35 S20G30    30.08F
6HR MIN TEMP:  42; 6HR MAX TEMP:  63;

CORSICANA      FAIR      63  35  35 SE14G26   30.12F
6HR MIN TEMP:  43; 6HR MAX TEMP:  63;

MEXIA          FAIR      61  38  43 S14G22    30.09F
6HR MIN TEMP:  38; 6HR MAX TEMP:  61;

HEARNE         FAIR      64  44  48 SE13G20   30.11F
6HR MIN TEMP:  37; 6HR MAX TEMP:  64;

TEMPLE           N/A    N/A N/A N/A SE20      30.07F
KILLEEN        MOSUNNY   64  39  39 SE20G28   30.04F
KILLEEN-SKYLRK FAIR     N/A N/A N/A S16G24    30.04F
6HR MIN TEMP:  45; 6HR MAX TEMP:  64;

HAMILTON       FAIR      64  33  31 S21G30    30.04F
6HR MIN TEMP:  40; 6HR MAX TEMP:  65;

LAMPASAS       FAIR      63  36  36 S15G24    30.04F
6HR MIN TEMP:  40; 6HR MAX TEMP:  63;

$$

TXZ095>097-106>112-122>126-135>138-148>153-164>167-161900-
EAST TEXAS

CITY           SKY/WX    TMP DP  RH WIND       PRES   REMARKS
PARIS          FAIR      59  37  44 S20G26    30.14F
6HR MIN TEMP:  39; 6HR MAX TEMP:  61;

SULPHUR SPRNGS FAIR      60  32  34 SE13G21   30.14F
6HR MIN TEMP:  43; 6HR MAX TEMP:  60;

CLARKSVILLE    FAIR      60  30  32 S16G23    30.14F
6HR MIN TEMP:  40; 6HR MAX TEMP:  61;

MINEOLA        FAIR      59  32  36 S15G21    30.14F
TYLER          FAIR      60  33  36 SE16      30.14F
6HR MIN TEMP:  42; 6HR MAX TEMP:  61;

LONGVIEW       FAIR      59  33  37 SE10G21   30.15F
6HR MIN TEMP:  42; 6HR MAX TEMP:  60;

ATHENS         FAIR      59  32  36 S7G23     30.12F
PALESTINE      FAIR      62  32  32 SE12G21   30.15F
JACKSONVILLE   FAIR      59  29  32 S13       30.16F
HENDERSON      FAIR      60  28  29 SE9G20    30.16F
6HR MIN TEMP:  37; 6HR MAX TEMP:  61;

NACOGDOCHES    FAIR      59  27  29 SE9G16    30.17F
6HR MIN TEMP:  37; 6HR MAX TEMP:  59;

LUFKIN         FAIR      63  33  32 S7        30.17F
6HR MIN TEMP:  38; 6HR MAX TEMP:  63;

$$

SUPPLEMENTAL OBSERVATIONS (CENTRAL)

CITY           SKY/WX    TMP DP  RH WIND       PRES   REMARKS
$$

SUPPLEMENTAL OBSERVATIONS (WEST)

CITY           SKY/WX    TMP DP  RH WIND       PRES   REMARKS
$$

SUPPLEMENTAL OBSERVATIONS (EAST)

CITY           SKY/WX    TMP DP  RH WIND       PRES   REMARKS
$$

SUPPLEMENTAL OBSERVATIONS ARE A COLLECTION OF AUTOMATED INSTRUMENTS
THAT ARE MAINTAINED BY A VARIETY OF FEDERAL AND STATE AGENCIES.
CERTAIN ELEMENTS...SUCH AS HUMIDITY VALUES AND SUSTAINED WIND
SPEEDS...MAY BE APPROXIMATED.